Location: Unspecified
(0.0000°N, 0.0000°E)
Time: 19:34:39
(UTC+00:00)

Hubble Space Telescope - Visible Passes

Search period start: 24 May 2016 00:00
Search period end: 03 June 2016 00:00
Orbit: 539 x 543 km, 28.5° (Epoch: 23 May)

Date Brightness Start Highest point End Pass type
(mag) Time Alt. Az. Time Alt. Az. Time Alt. Az.
29 May 3.1 18:53:54 10° N 18:55:47 13° NNE 18:57:41 10° NE visible
29 May 3.9 20:32:58 10° NW 20:33:27 13° NW 20:33:27 13° NW visible
30 May 2.8 18:43:22 10° NNW 18:46:12 18° NNE 18:49:01 10° ENE visible
30 May 3.5 20:23:18 10° WNW 20:24:25 18° WNW 20:24:25 18° WNW visible
31 May 2.4 18:33:11 10° NNW 18:36:35 24° NNE 18:39:59 10° E visible
31 May 3.1 20:13:46 10° WNW 20:15:25 22° W 20:15:25 22° W visible
01 Jun 1.9 18:23:10 10° NW 18:26:57 34° NNE 18:30:44 10° E visible
01 Jun 2.8 20:04:21 10° W 20:06:26 24° WSW 20:06:26 24° WSW visible
02 Jun 2.7 19:55:05 10° W 19:57:28 22° SW 19:57:28 22° SW visible
